Simultaneous Nadir Overpasses (SNOs) Predictions

Prediction of SNOs between METOP-A and TERRA Satellite Orbit:

Table of predicted SNOs for the next 14.0 days since TLE Epoch: 2/20/2016
Index Date (METOP-A) Time (METOP-A) Lat,Lon (METOP-A) SZA (METOP-A ) Date (TERRA) Time (TERRA) Lat,Lon (TERRA) SZA (TERRA ) Distance(km) Time Diff (sec)
1 02/22/2016 02:08:19 -81.29, 14.56 85.98 02/22/2016 02:09:06 -81.29, 14.55 85.97 0.45 47
2 02/22/2016 02:58:59 81.30,-177.72 94.05 02/22/2016 02:58:32 81.30,-177.68 94.04 0.73 27
3 02/24/2016 21:42:44 -81.29, 80.96 87.00 02/24/2016 21:43:16 -81.29, 81.12 86.97 2.73 32
4 02/24/2016 22:33:23 81.30,-110.98 93.08 02/24/2016 22:32:42 81.30,-111.14 93.04 2.82 41
5 02/27/2016 17:17:08 -81.30, 147.71 87.99 02/27/2016 17:17:25 -81.30, 147.64 87.99 1.24 17
6 02/27/2016 18:07:48 81.30, -44.66 92.03 02/27/2016 18:06:51 81.30, -44.66 92.01 0.07 57
7 03/01/2016 12:00:53 81.28, 45.91 90.88 03/01/2016 12:02:07 81.26, 45.77 90.88 3.63 74
8 03/01/2016 12:51:32 -81.30,-145.97 89.05 03/01/2016 12:51:32 -81.30,-145.90 89.04 1.16 0
9 03/01/2016 13:42:12 81.30, 21.61 90.97 03/01/2016 13:40:58 81.30, 21.76 90.96 2.67 74
10 03/04/2016 07:35:16 81.29, 112.92 89.89 03/04/2016 07:36:12 81.30, 112.91 89.92 0.45 56




NCC Satellite Simultaneous Nadir Overpasses (SNOs) Prediction Service
